Nashua, NH

11:22 AM EDT on September 18, 2019 (GMT -0400)
Boire

Weather History for KASH - May, 2019

Change the Weather History Date:

Saturday, May 18, 2019

  Actual Average Record
Temperature  
Mean Temperature 60 °F -  
Max Temperature 73 °F 67 °F 95 °F (2017)
Min Temperature 48 °F 44 °F 26 °F (1959)
Degree Days  
Heating Degree Days 4    
Growing Degree Days 10 (Base 50)    
Moisture  
Dew Point 41 °F    
Average Humidity 50    
Maximum Humidity 93    
Minimum Humidity 28    
Precipitation  
Precipitation 0.00 in - - ()
Sea Level Pressure  
Sea Level Pressure 29.96 in    
Wind  
Wind Speed 9 mph ()    
Max Wind Speed 17 mph    
Max Gust Speed 29 mph    
Visibility 10.0 miles    
Events      
Averages and records for this station are not official NWS values.
T = Trace of Precipitation, MM = Missing Value Source: Averaged Metar Reports

Daily Weather History Graph

Daily Weather History Graph

Search for Another Location

Airport or City:

Astronomy

May. 18, 2019 Rise Set
Actual Time 5:20 AM EDT 8:04 PM EDT
Civil Twilight 4:47 AM EDT 8:37 PM EDT
Nautical Twilight 4:06 AM EDT 9:19 PM EDT
Astronomical Twilight 3:19 AM EDT 10:06 PM EDT
Moon 7:55 PM EDT 5:28 AM EDT
Length of Visible Light 15h 49m
Length of Day
14h 44m
Full, 100% of the Moon is Illuminated
May 18
Full
May 18
Full
May 26
Last Quarter
Jun 3
New
Jun 10
First Quarter

Hourly Weather History & Observations

Time (EDT) Temp. Dew Point Humidity Pressure Visibility Wind Dir Wind Speed Gust Speed Precip Events Conditions
12:56 AM 57.9 °F 48.0 °F 70% 29.80 in 10.0 mi WNW 9.2 mph - N/A   Clear
1:56 AM 55.0 °F 48.0 °F 77% 29.81 in 10.0 mi WNW 8.1 mph - N/A   Clear
2:56 AM 48.9 °F 46.9 °F 93% 29.82 in 10.0 mi WNW 3.5 mph - N/A   Clear
3:56 AM 55.0 °F 42.1 °F 62% 29.83 in 10.0 mi WNW 10.4 mph - N/A   Clear
4:56 AM 53.1 °F 39.0 °F 59% 29.87 in 10.0 mi NW 12.7 mph - N/A   Clear
5:56 AM 51.1 °F 37.0 °F 59% 29.89 in 10.0 mi NW 11.5 mph - N/A   Clear
6:56 AM 53.1 °F 37.0 °F 55% 29.92 in 10.0 mi NW 12.7 mph - N/A   Clear
7:56 AM 55.0 °F 37.0 °F 51% 29.94 in 10.0 mi NW 17.3 mph 28.8 mph N/A   Clear
8:56 AM 57.9 °F 37.9 °F 47% 29.96 in 10.0 mi NNW 15.0 mph 26.5 mph N/A   Clear
9:56 AM 61.0 °F 37.9 °F 42% 29.97 in 10.0 mi NW 15.0 mph 20.7 mph N/A   Clear
10:56 AM 63.0 °F 39.0 °F 41% 29.98 in 10.0 mi North 9.2 mph 19.6 mph N/A   Clear
11:56 AM 66.0 °F 41.0 °F 40% 29.98 in 10.0 mi North 11.5 mph 17.3 mph N/A   Clear
12:56 PM 68.0 °F 39.0 °F 35% 29.98 in 10.0 mi North 8.1 mph 18.4 mph N/A   Clear
1:56 PM 70.0 °F 39.0 °F 32% 29.97 in 10.0 mi NNW 13.8 mph 19.6 mph N/A   Scattered Clouds
2:56 PM 71.1 °F 39.0 °F 31% 29.97 in 10.0 mi North 9.2 mph 17.3 mph N/A   Clear
3:56 PM 72.0 °F 37.9 °F 29% 29.97 in 10.0 mi North 5.8 mph 21.9 mph N/A   Clear
4:56 PM 73.0 °F 37.9 °F 28% 29.98 in 10.0 mi North 8.1 mph - N/A   Clear
5:56 PM 72.0 °F 37.9 °F 29% 30.00 in 10.0 mi North 10.4 mph - N/A   Clear
6:56 PM 70.0 °F 42.1 °F 36% 30.01 in 10.0 mi ESE 10.4 mph - N/A   Clear
7:56 PM 62.1 °F 42.1 °F 48% 30.05 in 10.0 mi SE 10.4 mph 16.1 mph N/A   Clear
8:56 PM 60.1 °F 42.1 °F 51% 30.09 in 10.0 mi ESE 8.1 mph - N/A   Mostly Cloudy
9:56 PM 59.0 °F 42.1 °F 53% 30.11 in 10.0 mi ESE 5.8 mph - N/A   Overcast
10:56 PM 57.9 °F 43.0 °F 58% 30.12 in 10.0 mi Calm Calm - N/A   Mostly Cloudy
11:56 PM 55.0 °F 46.0 °F 72% 30.11 in 10.0 mi Calm Calm - N/A   Overcast